Location: Leiter
(44.7178°N, 106.2687°W)
Time: 04:36:23
(UTC+00:00)

STARS - Pass Details

Date: 10 July 2022
Orbit: 620 x 637 km, 98.2° (Epoch: 13 August)

Event Time Altitude Azimuth Distance (km) Brightness Sun altitude
Rises 04:35:02 0° 32° (NNE) 2,920 ? -14.2°
Reaches altitude 10° 04:38:16 10° 58° (ENE) 2,002 ? -14.6°
Maximum altitude 04:40:33 14° 90° (E) 1,746 ? -14.8°
Enters shadow 04:41:01 14° 97° (E) 1,756 ? -14.9°
